Other Public Products
Issued by NWS Grand Forks, ND

Home | Current Version | Previous Version | Text Only | Print | Product List | Glossary Off
Versions: 1 2 3 4 5 6 7 8 9 10 11 12 13 14 15 16 17 18 19 20 21 22 23 24 25 26 27 28 29 30 31 32 33 34 35 36 37 38 39 40 41 42 43 44 45 46 47 48 49 50

805
FPUS83 KFGF 302310
OPUFGF
PRAIRIE TO PINES WEATHER ROUNDUP
NATIONAL WEATHER SERVICE EASTERN NORTH DAKOTA/GRAND FORKS ND
600 PM CDT SAT JUL 30 2016

 **SATELLITE DATA USED TO AUGMENT SKY COVER AT AUTOMATED STATIONS**
 *****  WEATHER ACROSS EASTERN NORTH DAKOTA  *****

CITY           SKY/WX    TMP DP  RH WIND       PRES   REMARKS
GRAND FORKS    CLOUDY    79  62  56 S10       29.89F
GRAND FORKS AF CLOUDY    79  62  56 S13       29.89F
GRAND CITY NWS NOT AVBL
BUXTON           N/A     81  64  56 S10         N/A
DEVILS LAKE    MOSUNNY   79  64  60 S17G23    29.86F
FARGO          SUNNY     81  60  48 S15       29.92S
WAHPETON ARPT  CLEAR     79  55  44 S13       29.95S
$$

 *****  WEATHER ACROSS CENTRAL AND WESTERN NORTH DAKOTA  *****

CITY           SKY/WX    TMP DP  RH WIND       PRES   REMARKS
JAMESTOWN      CLOUDY    78  62  57 S9        29.88S
BISMARCK       SUNNY     86  63  45 SE13      29.81F
MINOT          SUNNY     88  59  37 SE8       29.81S
MINOT AFB      SUNNY     84  59  42 S5        29.80S
GARRISON         N/A     84  64  50 S6        29.81F
WILLISTON      SUNNY     90  50  25 SE6       29.78F
DICKINSON      SUNNY     86  48  26 CALM      29.80F
HETTINGER      PTSUNNY   93  52  24 VRB5      29.82F HX  90
$$

 *****  OTHER OBSERVATIONS NORTHEAST NORTH DAKOTA  *****

CITY           SKY/WX    TMP DP  RH WIND       PRES   REMARKS
WALHALLA       NOT AVBL
LANGDON        MOCLDY    75  66  73 S12       29.88F
CAVALIER       FAIR      81  64  57 S15G21    29.87S
GRAFTON        FAIR      77  64  65 S12       29.90F
CANDO          NOT AVBL
FORT TOTTEN      N/A     78  62  56 S13       29.95S
ROLLA            N/A     77  64  65 S13       29.86F
RUGBY          NOT AVBL
 ***** THE ABOVE OBSERVATIONS ARE NON NWS ARE NOT QUALITY
        CONTROLLED AND MAY MIS-REPORT RAIN FOR SNOW...
$$

 *****  OTHER OBSERVATIONS SOUTHEAST NORTH DAKOTA *****

CITY           SKY/WX    TMP DP  RH WIND       PRES   REMARKS
COOPERSTOWN    NOT AVBL
VALLEY CITY    FAIR      81  63  54 S14G21    29.92S
OAKES            N/A    N/A N/A N/A MISG        N/A
GWINNER        FAIR      81  63  54 SE13      29.91F
SHEYENNE NWR     N/A     79  60  51 SE12      29.95S
BUFFALO          N/A     80  57  45 SE15        N/A
WYNDMERE         N/A    N/A N/A N/A S10         N/A
 ***** THE ABOVE OBSERVATIONS ARE NON NWS ARE NOT QUALITY
       CONTROLLED AND MAY MIS-REPORT RAIN FOR SNOW...
$$

  *****  WEATHER ACROSS NORTHERN MINNESOTA  *****

CITY           SKY/WX    TMP DP  RH WIND       PRES   REMARKS
FLAG ISLAND    PTSUNNY   77  64  65 S8        29.92F
WARROAD        PTSUNNY   75  64  69 S5        29.94F
ROSEAU         CLOUDY    75  66  73 S9        29.93S
HALLOCK        CLOUDY    79  66  65 S13       29.88F
THF RVR FALLS  MOSUNNY   78  62  57 S12       29.95S
HALSTAD          N/A     80  61  51 S14         N/A
FOSSTON        SUNNY     77  61  57 S8        29.97S
BAUDETTE       SUNNY     78  58  49 S12       29.96S
WASKISH        CLOUDY    77  61  57 S7        29.98S
CROOKSTON      CLOUDY    79  61  53 S14       29.93S
$$
  *****  WEATHER ACROSS CENTRAL AND WEST MINNESOTA  *****

CITY           SKY/WX    TMP DP  RH WIND       PRES   REMARKS
BEMIDJI        SUNNY     76  60  56 S6        29.99S
PARK RAPIDS    SUNNY     80  54  40 SE10      29.98F
WADENA         SUNNY     77  57  50 SE7       29.98F
DETROIT LAKES  SUNNY     77  57  50 SE10      29.98F
MOORHEAD       SUNNY     79  61  53 SE7       29.94S
FERGUS FALLS   SUNNY     79  59  50 S9        29.97S
ELBOW LAKE     FAIR      77  59  52 E9        29.97F
MORRIS MN      SUNNY     81  54  39 S8        29.96S
STAPLES        MOSUNNY   79  55  44 S6        29.98F
WHEATON        SUNNY     81  63  54 SE12      29.96F
$$
  *****  WEATHER ELSEWHERE ACROSS MINNESOTA  *****

CITY           SKY/WX    TMP DP  RH WIND       PRES   REMARKS
DULUTH         MOSUNNY   72  60  66 E9        30.02F
INTRNTL FALLS  LGT RAIN  70  63  78 SW3       29.99F
ELY            SUNNY     77  45  31 SW6       30.01F
CLOQUET        MOSUNNY   73  61  64 E6        30.01F
BRAINERD       PTSUNNY   77  60  55 SE7       29.99S
HIBBING        SUNNY     76  53  44 S3        30.00F
ALEXANDRIA     SUNNY     77  55  46 SE8       29.99F
SAINT CLOUD    MOSUNNY   80  63  55 SE6       29.97F
MINNEAPOLIS    LGT RAIN  75  67  76 S7        29.98S
$$

  *****  WEATHER ACROSS SOUTH DAKOTA  *****

CITY           SKY/WX    TMP DP  RH WIND       PRES   REMARKS
SIOUX FALLS    MOSUNNY   79  57  46 SE8       29.95F
BROOKINGS      SUNNY     78  59  51 SE10      29.96F
WATERTOWN      MOSUNNY   80  59  48 S13       29.95F
HURON          SUNNY     83  59  44 S12       29.89F
SISSETON         N/A     79  60  52 S12G21    29.92F
ABERDEEN       SUNNY     83  59  44 SE14      29.89F
MITCHELL       PTSUNNY   82  62  50 SE15      29.91S
PIERRE         MOSUNNY   88  59  37 SE16      29.81F
MOBRIDGE       MOSUNNY   90  57  32 S16G25    29.79F
RAPID CITY     CLOUDY    87  55  33 SE13      29.82S THUNDER
$$

  *****  SOME WEATHER IN NEARBY STATES *****

CITY           SKY/WX    TMP DP  RH WIND       PRES   REMARKS
GLASGOW MT     SUNNY     87  54  32 SE13      29.70F
GREAT FALLS MT SUNNY     94  31  10 W12G21    29.72F
CHEYENNE WY    CLOUDY    85  46  25 S9        30.04F
SCOTTSBLUFF NE SUNNY     89  60  37 E18G28    29.89F
OMAHA NE       MOSUNNY   82  63  52 S9        29.95F
DES MOINES IA  MOSUNNY   82  65  56 S7        29.96S
DAVENPORT IA   PTSUNNY   79  66  64 E5        29.97F
CHICAGO IL     PTSUNNY   75  64  68 NE12      29.98S
EAU CLAIRE WI  MOSUNNY   79  62  56 E6        29.99F
LA CROSSE WI   SUNNY     79  62  56 SE5       29.98S
$$

  *****  SOME NATIONAL WEATHER *****

CITY           SKY/WX    TMP DP  RH WIND       PRES   REMARKS
LA GUARDIA NY  PTSUNNY   77  73  87 S8        30.02R
RALEIGH NC     CLOUDY    88  75  65 CALM      29.92F HX  97
ATLANTA GA     CLOUDY    81  71  71 SW8       30.01F
NEW ORLEANS LA PTSUNNY   89  74  60 S9        29.98F HX  98
OKLAHOMA CITY  MOSUNNY   91  74  57 SE7       29.91F HX 100
ALBUQUERQUE NM PTSUNNY   92  43  18 CALM      30.02F
SALT LAKE CITY PTSUNNY   95  41  15 CALM      29.90F HX  91
LOS ANGELES CA MOSUNNY   75  65  70 SW10      29.84F
BOISE ID       SUNNY    100  39  12 N13G21    29.76F HX  95
SEATTLE WA     SUNNY     73  54  51 VRB7      29.96F
$$

*** WEATHER ACROSS MANITOBA...SASKATCHEWAN AND ONTARIO ***
                ***ONTARIO***

CITY           SKY/WX    TMP DP  RH WIND       PRES   REMARKS
GERALDTON      MOSUNNY   77  46  33 S14       30.03F
THUNDER BAY    PTSUNNY   73  55  53 SE8       30.03F
SIOUX LOOKOUT  PTSUNNY   77  55  47 S8        29.96F
TORONTO        PTSUNNY   77  54  44 E9        30.01R
BIG TROUT LK   PTSUNNY   77  59  53 CALM      29.88F
PICKLE LAKE    PTSUNNY   81  52  36 SW14G21   29.94F
DRYDEN         MOSUNNY   77  54  44 SW7       29.97S
KENORA         PTSUNNY   75  64  69 S10       29.95F
$$
                *** MANITOBA***

CITY           SKY/WX    TMP DP  RH WIND       PRES   REMARKS
BRANDON        PTSUNNY   82  61  47 S9        29.81F
DAUPHIN        SUNNY     84  59  42 SW5       29.77F
ISLAND LAKE    PTSUNNY   79  63  57 SE7       29.80F
PILOT MOUND      N/A     75  64  69 S14         N/A
THE PAS        PTSUNNY   81  61  50 S8        29.73S
THOMPSON       PTSUNNY   75  63  64 VRB2      29.75F
WINNIPEG       PTSUNNY   77  66  69 S16G26    29.86S
LYNN LAKE      CLOUDY    70  59  68 MISG      29.78S
CHURCHILL      CLOUDY    54  48  82 E10G20    29.91S
GILLAM         PTSUNNY   70  63  78 E8        29.80S
$$
                ***SASKATCHEWAN***

CITY           SKY/WX    TMP DP  RH WIND       PRES   REMARKS
ESTEVAN        MOSUNNY   81  59  47 SE8       29.80S
KINDERSLEY     MOSUNNY   77  61  57 S14G20    29.68F
LLOYDMINSTER   LGT RAIN  61  59  94 N8        29.73F FOG
PRINCE ALBERT  PTSUNNY   81  61  50 S12       29.70F
REGINA         PTSUNNY   82  59  44 S6        29.77F
YORKTON        MOSUNNY   82  55  39 S8        29.78F   C1F1C2F2C3F3C4F4C5F5C6F6C7F7C8F8C9F9CaFaCbFbCcFcCdFdCe!



USA.gov is the U.S. government's official web portal to all federal, state and local government web resources and services.